OSCAR 17 (DOVE)

Satellite information

Favourite Embed

Satellite Type and Status

PAYLOADIN ORBIT

Key statistics

Satellite OSCAR 17 (DOVE) at a glance.

Uptime

13110

Days in orbit

Revolutions

≈ 14.3

Per day

Orbit

SSO

Sun Synchronous Orbit

Inclination

98.9

Latest

Satellite identification and parameters

Extended collection of information and parameters for OSCAR 17 (DOVE).

Object identification

Identified? True

Debris? False

Object name: OSCAR 17 (DOVE)

International designator: 1990-005E

Object number (NORAD): 20440

Object ID (CCSDS): 20440

Country: BRAZIL (BRAZ)

Current information (Y/N): Y

RCS size: MEDIUM

Orbital parameters

Period: 100.39 minutes

Inclination: 98.8799 deg

SMA: 7155.176 km

Apoapsis: 785.03 km

Periapsis: 769.053 km

RAAN: 6.8229 deg

Eccentricy: 0.00111647

Argument of periapsis: 38.7613 deg

Mean anomaly: 340.0162 deg

Mean motion: 14.34406585 rev/day

Mean motion (dot): 0.00000284 rev/day2

B* drag term: 0.00011731311 1/REarth

Two-line elements (TLE)

Creation date: Dec. 12, 2025, 10:14 a.m.

Reference frame: TEME

Reference center: EARTH

Epoch: Dec. 12, 2025, 7:51 a.m. UTC

TLE line 0: 0 OSCAR 17 (DOVE)

TLE line 1: 1 20440U 90005E 25346.32750303 .00000284 00000-0 11731-3 0 9997

TLE line 2: 2 20440 98.8799 6.8229 0011165 38.7613 340.0162 14.34406585875557

Live tracking on map

Real-time ground track for satellite OSCAR 17 (DOVE).

In-orbit conjunctions

A list of the most updated potential collisions computed for object OSCAR 17 (DOVE).

Target Orbit TCA Probability of collision Miss distance Type
FENGYUN 1C DEB SSO 2025-10-13 15:55:51 0.0001447749 79.0 (m) DEBRIS
CZ-6A DEB LEO 2025-06-28 12:22:35 0.0006249437 473.0 (m) DEBRIS
COSMOS 2251 DEB LEO 2025-05-04 11:20:22 0.001048368 182.0 (m) DEBRIS
COSMOS 1818 COOLANT LEO 2025-04-10 22:11:55 0.0001441393 720.0 (m) DEBRIS
COSMOS 1354 LEO 2025-03-16 10:27:43 0.0001246819 302.0 (m) PAYLOAD

Associated space launch

French Earth observation satellite

OSCAR 17 (DOVE) was lifted into orbit during the mission ‘Ariane 40 | SPOT 2’, on board a Ariane 40 space rocket.

The launch took place on Jan. 22, 1990, 1:35 a.m. from Ariane Launch Area 2.

For more information about the launch, click the button.

Launch to space Ariane 40 | SPOT 2
Ariane 40 | SPOT 2

Agency: N/A

Status: Launch Successful

Launch date: Jan. 22, 1990, 1:35 a.m. UTC

Rocket: Ariane 40

Launch pad: Ariane Launch Area 2

Location: Guiana Space Centre, French Guiana

...

Latest news about this satellite

There are no fresh news available about this satellite. Check back as we update our databases every day.


Newsletter sign-up

Weekly statistics, charts and insights to help you stay on top of the space industry.